Vertical_Velocity
-2 -5 -3 -3 1 3 -2 -5 4 2 -2 -4 -9 -2 -2 -8 -1 3 5 -15 -6 5 1 -3 5 -3 10 4 3 -7 4 4 6 1 0 0 1 2 -4 -1 3 -1 -1 2 -0 -0 1 -0 2
-1 -4 -2 -1 -1 -5 -2 2 2 -3 0 3 9 1 -7 -3 4 6 -5 2 -6 -4 8 -9 24 15 15 7 7 1 5 3 3 4 5 1 1 3 0 -6 -7 1 1 1 -0 -1 2 -2 3
-0 -5 -1 -1 -3 -4 1 0 -1 -9 -6 -8 -2 4 5 -6 -3 14 8 -6 12 2 -9 4 -15 -8 130 -0 7 9 1 2 4 0 5 3 3 -2 -3 -0 -0 1 2 1 2 -0 -1 0 7
-3 -3 -1 -2 -3 -3 -2 -5 -12 -5 4 4 3 -1 3 4 -5 3 11 5 -6 15 10 18 -7 -21 90 -3 8 4 5 3 1 2 1 -3 3 -6 -4 1 0 -1 -1 1 -1 1 -2 -0 7
-3 -1 1 1 -1 -2 -3 -4 -4 -2 0 -2 3 -5 -3 -4 -2 4 -2 9 6 2 1 7 3 -11 -20 86 4 3 3 5 2 -1 -0 -3 -3 -2 1 1 1 -2 1 2 1 -1 -3 1 8
-3 -2 -1 -0 -1 2 -8 -5 -3 -4 -3 1 3 0 12 3 -2 2 -3 3 6 -6 -12 -12 14 -15 14 127 -4 -1 3 5 2 -1 -4 -6 3 1 1 1 1 -1 1 -1 1 2 -3 -4 10
-3 -3 -1 2 -3 -1 -5 -0 2 -1 -2 2 -1 10 9 10 -7 2 -11 -4 6 3 1 -21 0 -17 21 86 -5 -6 4 5 3 -1 -1 -2 0 1 3 1 -1 -1 -3 1 1 0 -3 -10 14
-1 -5 -1 1 -5 -6 -0 3 -3 -3 -0 3 4 -2 9 5 8 22 6 6 -4 16 26 -3 2 -19 22 54 13 58 -5 -0 3 -0 -3 -2 1 -5 2 -2 2 -1 2 2 0 1 -5 -10 5
-0 -4 -1 -3 -6 -4 -3 3 2 -2 -1 -1 -5 -2 9 -1 9 -5 1 1 -3 0 3 26 -10 -11 144 17 7 12 15 1 2 -1 2 -4 -2 -1 2 1 -0 -1 0 -1 0 -2 -1 -7 9
1 -0 0 -2 -3 -3 -3 3 -8 -5 -2 3 -4 -3 3 -1 1 3 7 7 7 3 -4 -26 -7 -10 30 34 39 14 2 6 3 0 4 -1 -4 -2 -2 7 2 3 0 2 1 -2 -1 -1 5
-1 1 0 -2 -8 -7 -3 4 9 -8 -4 -4 0 0 -1 2 1 6 -7 2 -2 3 2 -26 -3 94 39 18 15 -1 3 -2 -5 -3 1 -3 1 6 -4 4 3 1 0 -1 0 -1 -2 -2 0
2 -2 -0 1 -3 -5 -4 5 5 -1 -1 -3 -3 -2 -0 -5 1 3 -3 -9 1 2 3 -15 9 -4 48 53 46 -3 1 8 -3 3 4 2 -4 -1 -2 -0 3 -3 0 2 -0 -1 -0 -1 1
-4 0 0 0 -4 -6 -6 0 1 -1 1 -11 -8 4 -11 -5 3 2 1 7 2 3 8 5 -5 -9 0 8 -8 21 2 -2 5 0 -4 -0 -2 2 3 2 0 1 -1 2 1 -1 -1 -1 -1
1 -0 0 0 -3 -6 -7 -4 -2 0 5 -0 -4 -8 -5 -2 -8 -2 1 1 -1 3 5 -3 -4 3 -4 -12 -17 -5 -6 -5 -1 -3 -4 -2 -2 -2 -3 0 2 -1 0 1 -0 0 -1 -1 -3
1 0 -1 -3 -2 -1 -4 -8 2 -0 3 -6 -7 -2 6 -2 -3 -4 -2 -2 -3 -7 -6 -1 3 -2 -9 0 -13 2 6 2 17 -1 -1 -3 -1 0 1 -2 0 0 -2 -1 -1 3 0 -1 -1
1 -1 -0 -3 -2 -2 -4 -9 -3 -0 1 -0 -1 -0 0 -6 -5 -5 -4 -4 2 1 -2 -2 -2 5 4 2 -5 -2 3 6 -4 6 4 -4 1 2 -2 1 -2 1 -1 -2 -2 0 0 -3 -0
1 -1 4 -0 -3 -2 -5 -1 -8 3 2 -3 -2 -1 -1 -8 3 -2 2 5 -3 -2 -3 -9 -7 -7 -6 -1 0 -3 1 5 0 -5 -3 5 3 -0 1 1 -5 0 0 0 -3 1 0 -1 1
-3 0 -1 4 -2 1 -0 -4 -10 1 -3 -5 1 9 -4 -5 -8 -4 -4 1 4 0 -5 -10 -8 1 -4 -3 -7 5 -5 3 3 0 -1 -0 0 -1 -1 1 -4 -1 -3 -3 5 -0 1 0 1
0 0 0 6 -0 -8 2 -6 -7 0 1 7 4 9 4 -2 -3 -5 -3 -2 5 3 5 -3 -3 3 1 8 10 5 6 7 1 2 -1 -2 -0 -1 4 -3 0 -5 1 1 -1 1 2 2 2
-0 -0 1 0 -1 -6 4 -2 -7 -3 -7 -7 -4 -0 2 6 9 1 -3 -1 0 5 5 0 4 5 4 4 -6 0 1 -1 -6 0 -3 0 2 4 4 5 -3 1 -3 -3 -2 1 2 -4 1
-2 4 1 -6 -4 -7 3 1 -3 -6 2 -4 -5 -4 -1 -6 2 -1 -3 -1 -10 0 3 -2 -1 -2 0 1 -8 -2 -0 -1 2 1 -5 2 3 -5 3 2 1 1 -2 -5 1 -2 3 0 -1
-0 2 -3 -3 -1 -5 -1 0 -2 1 -4 -2 -2 -6 -2 -5 -3 1 -1 -4 -3 2 0 -1 -1 -1 -1 -5 -3 -1 2 -7 -4 -5 4 -5 -1 -6 2 5 -4 -1 -3 -1 0 -1 0 2 -1
8 2 -1 1 -1 -4 -1 -6 -2 -0 3 -1 -1 -3 -2 -1 -1 -5 -7 -2 2 1 6 1 -6 -5 -3 -4 1 3 -4 2 7 -3 5 -5 -1 5 1 3 4 -1 -2 0 0 -1 -0 2 -1
7 -4 -3 -1 -3 -2 -5 -8 2 -2 -5 2 -2 -3 -1 -1 -0 -1 1 1 -3 -4 -3 1 -5 0 -1 1 2 4 5 -2 -2 7 -2 2 2 -2 4 -2 1 1 1 3 -0 -3 -2 -1 1
1 -1 -2 -3 -5 -1 -4 -9 14 -1 1 -4 -4 -0 -0 -0 2 4 -0 -0 2 3 2 3 3 0 -0 0 1 -1 -1 0 -3 -3 -2 1 -1 -1 -3 -1 -3 -3 1 2 -0 -1 -1 -2 -1
4 4 4 -2 -1 2 -2 -11 -1 -1 -2 2 -6 0 1 3 -1 0 2 4 3 1 2 3 0 3 3 2 4 2 2 -1 -2 -2 0 -3 -4 -5 -2 -1 -0 -1 -0 4 2 -1 -4 -1 0
8 -10 9 -0 0 -7 -1 -4 -4 -3 -3 -5 -3 -2 3 -1 2 1 2 -2 5 -2 2 -1 0 -2 -2 -4 -4 -2 0 -0 -1 1 -1 -0 0 0 -0 2 2 -3 -2 -2 -4 -3 -0 0 1
-1 5 -1 -4 -3 -10 -1 -4 -4 -3 -2 -2 -5 -3 -3 5 3 2 1 3 -3 0 -0 5 2 -1 0 -1 -1 0 1 2 1 -1 -0 3 0 3 6 6 5 7 4 -1 -2 -0 -1 -2 -2
-1 -3 -5 -3 -3 -7 0 -7 -5 -5 -3 1 1 -0 5 -1 2 0 4 0 0 6 7 8 5 12 5 1 0 -1 1 0 2 -1 -1 7 4 10 5 11 13 5 -5 -2 1 -1 -2 -3 -3
-3 4 3 -1 1 -1 -3 -4 0 -3 -5 -3 -2 -2 -0 1 2 -1 -2 -3 5 5 -3 -1 10 -3 9 4 2 -0 -1 -1 0 5 0 3 19 6 18 10 7 -1 -0 -1 -2 1 0 0 -1
Height
5821 5816 5811 5808 5805 5798 5794 5790 5791 5791 5790 5789 5789 5789 5789 5791 5790 5793 5790 5794 5796 5798 5799 5798 5799 5801 5804 5807 5813 5818 5822 5825 5828 5830 5831 5832 5833 5835 5836 5838 5839 5839 5840 5841 5841 5841 5842 5843 5842
5816 5811 5806 5800 5797 5792 5790 5789 5790 5790 5790 5789 5789 5787 5787 5787 5788 5787 5788 5791 5791 5791 5788 5787 5794 5797 5801 5802 5810 5813 5818 5821 5824 5827 5829 5830 5831 5832 5834 5833 5835 5836 5836 5837 5838 5838 5841 5841 5839
5812 5806 5800 5795 5792 5789 5788 5787 5787 5787 5787 5786 5785 5783 5782 5780 5781 5783 5781 5783 5785 5783 5782 5779 5781 5785 5789 5798 5804 5808 5812 5817 5820 5825 5826 5828 5829 5831 5832 5833 5833 5834 5835 5836 5835 5836 5837 5838 5839
5808 5801 5796 5793 5789 5786 5784 5783 5781 5781 5784 5783 5780 5775 5773 5769 5768 5770 5773 5774 5776 5781 5781 5775 5778 5778 5782 5791 5797 5803 5808 5813 5816 5819 5822 5825 5827 5829 5831 5830 5831 5830 5832 5832 5833 5833 5834 5836 5837
5802 5796 5792 5790 5786 5783 5780 5778 5777 5779 5779 5777 5773 5769 5764 5758 5755 5762 5763 5765 5768 5771 5771 5772 5775 5775 5785 5784 5794 5800 5805 5809 5811 5816 5819 5820 5823 5826 5827 5827 5828 5828 5829 5829 5829 5830 5830 5833 5834
5797 5793 5790 5787 5784 5781 5777 5775 5776 5774 5774 5771 5768 5765 5757 5749 5747 5756 5753 5755 5759 5764 5758 5759 5765 5764 5771 5767 5790 5795 5799 5803 5807 5812 5815 5817 5819 5822 5823 5824 5825 5825 5826 5825 5824 5825 5825 5828 5831
5794 5790 5788 5786 5782 5778 5775 5774 5773 5771 5770 5768 5764 5763 5758 5752 5745 5746 5747 5751 5755 5757 5757 5755 5755 5756 5758 5764 5782 5788 5794 5799 5803 5807 5812 5814 5816 5817 5819 5820 5821 5822 5821 5820 5820 5820 5820 5821 5827
5790 5788 5786 5783 5778 5776 5774 5771 5769 5767 5765 5764 5761 5759 5756 5751 5746 5745 5747 5745 5747 5744 5746 5744 5743 5749 5746 5747 5773 5777 5789 5793 5800 5805 5808 5809 5812 5813 5816 5816 5815 5816 5816 5814 5813 5814 5814 5815 5818
5788 5786 5784 5778 5775 5774 5771 5769 5765 5763 5763 5761 5757 5756 5754 5747 5744 5744 5743 5741 5742 5741 5744 5743 5726 5739 5722 5747 5765 5772 5779 5788 5796 5800 5801 5804 5807 5809 5809 5810 5810 5810 5810 5811 5810 5810 5810 5809 5814
5786 5784 5781 5775 5773 5770 5768 5768 5763 5762 5761 5760 5755 5755 5752 5747 5745 5745 5741 5739 5740 5740 5737 5737 5735 5725 5728 5752 5761 5768 5777 5786 5791 5794 5797 5800 5802 5804 5804 5805 5804 5804 5805 5806 5806 5805 5806 5807 5810
5783 5782 5777 5771 5768 5768 5766 5765 5763 5761 5759 5757 5755 5752 5749 5747 5745 5743 5739 5740 5740 5742 5742 5737 5736 5730 5740 5752 5756 5766 5773 5782 5788 5790 5792 5794 5797 5796 5798 5797 5799 5798 5799 5800 5800 5800 5801 5804 5807
5783 5778 5773 5768 5766 5765 5765 5763 5761 5759 5759 5756 5753 5748 5746 5744 5743 5740 5738 5738 5737 5740 5745 5742 5741 5743 5741 5751 5755 5765 5774 5780 5782 5784 5787 5788 5791 5792 5793 5793 5793 5794 5793 5793 5795 5795 5797 5800 5803
5776 5774 5771 5766 5765 5764 5764 5761 5758 5756 5756 5755 5750 5745 5743 5743 5741 5740 5739 5736 5738 5739 5744 5746 5746 5748 5752 5754 5757 5765 5771 5774 5775 5779 5784 5784 5786 5788 5787 5788 5788 5789 5788 5787 5789 5792 5796 5797 5800
5774 5771 5769 5765 5764 5763 5761 5758 5757 5756 5756 5752 5749 5749 5745 5743 5740 5738 5739 5737 5736 5739 5741 5746 5747 5749 5751 5753 5759 5766 5768 5771 5772 5775 5778 5779 5781 5782 5782 5782 5783 5783 5783 5784 5786 5791 5794 5796 5797
5771 5768 5765 5762 5762 5762 5760 5758 5757 5754 5753 5751 5747 5747 5746 5743 5739 5736 5735 5736 5736 5738 5742 5741 5743 5747 5751 5752 5756 5760 5764 5764 5767 5769 5771 5774 5773 5776 5777 5777 5777 5778 5777 5781 5785 5788 5791 5792 5794
5767 5764 5763 5762 5761 5759 5759 5755 5753 5753 5752 5750 5747 5746 5745 5741 5736 5734 5733 5734 5735 5735 5740 5744 5744 5746 5748 5749 5751 5754 5758 5760 5759 5764 5765 5767 5769 5771 5770 5770 5771 5773 5776 5780 5782 5786 5788 5788 5790
5762 5761 5762 5761 5757 5755 5757 5755 5750 5752 5750 5747 5745 5747 5742 5735 5732 5729 5729 5730 5732 5734 5735 5739 5742 5745 5745 5746 5748 5748 5751 5754 5756 5758 5759 5761 5762 5762 5763 5764 5766 5771 5776 5779 5780 5782 5784 5784 5786
5757 5758 5756 5760 5756 5751 5753 5752 5746 5750 5749 5746 5744 5744 5738 5732 5732 5729 5728 5730 5730 5730 5732 5734 5736 5740 5740 5743 5743 5745 5746 5749 5748 5750 5754 5755 5757 5757 5759 5761 5766 5769 5773 5776 5778 5780 5781 5781 5782
5753 5753 5754 5754 5752 5747 5749 5751 5745 5747 5747 5744 5742 5743 5737 5735 5733 5729 5729 5728 5730 5729 5730 5730 5733 5734 5734 5736 5736 5737 5737 5741 5744 5747 5749 5750 5754 5757 5758 5761 5765 5768 5771 5774 5775 5776 5778 5778 5778
5748 5749 5751 5750 5748 5745 5745 5747 5742 5743 5744 5743 5742 5742 5739 5736 5735 5732 5733 5730 5730 5729 5727 5731 5732 5734 5733 5736 5736 5736 5737 5740 5741 5746 5747 5751 5756 5758 5760 5762 5764 5767 5769 5770 5771 5771 5773 5773 5771
5745 5745 5745 5745 5743 5742 5742 5744 5740 5741 5743 5742 5741 5740 5740 5737 5738 5737 5732 5733 5734 5729 5727 5731 5733 5733 5733 5734 5737 5739 5741 5742 5745 5746 5747 5753 5754 5755 5757 5759 5760 5763 5764 5764 5765 5766 5766 5766 5764
5740 5739 5739 5741 5742 5740 5739 5742 5739 5739 5741 5741 5741 5740 5742 5740 5741 5739 5739 5737 5733 5730 5729 5732 5734 5734 5735 5735 5739 5740 5740 5744 5743 5745 5749 5750 5751 5751 5753 5755 5757 5758 5758 5758 5759 5760 5760 5759 5757
5738 5733 5735 5736 5738 5739 5736 5737 5736 5736 5739 5739 5740 5738 5739 5738 5738 5738 5738 5735 5733 5730 5728 5731 5732 5733 5736 5738 5739 5742 5743 5743 5744 5745 5746 5746 5747 5749 5751 5750 5751 5752 5753 5754 5753 5753 5753 5752 5750
5730 5728 5729 5730 5733 5735 5732 5731 5735 5733 5735 5737 5735 5735 5736 5734 5734 5735 5733 5732 5731 5730 5730 5729 5732 5733 5735 5736 5737 5740 5741 5739 5738 5740 5741 5741 5743 5744 5745 5745 5745 5746 5747 5747 5747 5746 5744 5743 5740
5719 5721 5724 5724 5727 5730 5728 5728 5733 5729 5730 5731 5732 5732 5733 5731 5732 5732 5730 5730 5730 5730 5729 5728 5730 5733 5734 5734 5735 5735 5735 5735 5737 5738 5739 5740 5740 5739 5739 5740 5741 5741 5741 5740 5738 5737 5735 5733 5730
5714 5716 5718 5719 5723 5725 5723 5723 5726 5724 5725 5726 5727 5730 5731 5730 5730 5730 5729 5728 5729 5729 5730 5731 5731 5731 5731 5731 5732 5732 5732 5734 5734 5735 5735 5736 5735 5733 5734 5735 5735 5734 5733 5732 5731 5730 5727 5725 5722
5708 5706 5716 5713 5714 5717 5718 5718 5718 5719 5720 5720 5721 5724 5727 5728 5729 5728 5727 5727 5727 5727 5728 5729 5730 5730 5730 5730 5730 5730 5731 5732 5731 5730 5729 5728 5729 5728 5728 5727 5726 5726 5725 5724 5723 5720 5718 5714 5709
5698 5704 5706 5704 5706 5709 5712 5712 5714 5715 5715 5716 5717 5719 5721 5723 5724 5725 5725 5725 5725 5724 5725 5725 5725 5727 5726 5726 5727 5727 5728 5728 5727 5727 5725 5722 5722 5721 5720 5719 5719 5718 5716 5715 5712 5710 5707 5704 5701
5689 5691 5695 5699 5699 5703 5706 5708 5709 5711 5711 5713 5714 5714 5716 5717 5719 5719 5719 5720 5720 5720 5720 5720 5720 5720 5721 5722 5722 5722 5722 5721 5720 5720 5719 5716 5714 5713 5713 5711 5710 5709 5707 5705 5704 5700 5697 5694 5691
5683 5686 5690 5691 5694 5698 5700 5704 5704 5707 5708 5709 5708 5708 5708 5709 5710 5712 5712 5712 5715 5716 5715 5716 5715 5716 5717 5717 5718 5717 5716 5713 5711 5710 5708 5707 5703 5704 5704 5703 5702 5700 5698 5696 5693 5690 5687 5684 5681